Location: Carella
(45.8167°N, 9.2667°E)
Time: 13:11:28
(UTC+00:00)

Terra - Pass Details

Date: 30 March 2020
Orbit: 701 x 703 km, 98.2° (Epoch: 26 May)

Event Time Altitude Azimuth Distance (km) Brightness Sun altitude
Exits shadow 19:53:26 16° 51° (NE) 1,817 3.7 -21.2°
Drops below altitude 10° 19:55:44 10° 23° (NNE) 2,181 4.4 -21.5°
Sets 19:58:47 0° 2° (N) 3,105 5.6 -22.0°
